HVN35 VVTS-VVDN

Flight info

Callsign HVN35
Flight time N/A
Altitude 39000
Route PATMA5M PATMA Q2 SADAS/K0867F290 Q7 MUMGA Q1 SADIN SADIN1D
Aircraft A359/H-SDE2E3GHIJ3J4J5LM1ORWXY/LB1D1

Departure

Time 2026-05-07 13:34
Airport Tan Son Nhat International Airport (VVTS)

Arrival

Time N/A
Airport Da Nang International Airport (VVDN)
Time Latitude Longitude Altitude Speed Heading
2026-05-07 12:52 10.81207 106.65171 44 ft 0 kts 159°
2026-05-07 13:19 10.81223 106.65165 44 ft 3 kts 159°
2026-05-07 13:20 10.81241 106.65158 39 ft 2 kts 159°
2026-05-07 13:20 10.81257 106.65150 42 ft 3 kts 125°
2026-05-07 13:20 10.81262 106.65135 37 ft 3 kts 71°
2026-05-07 13:20 10.81254 106.65116 42 ft 3 kts 68°
2026-05-07 13:21 10.81253 106.65114 42 ft 0 kts 69°
2026-05-07 13:25 10.81257 106.65124 44 ft 6 kts 69°
2026-05-07 13:26 10.81278 106.65183 44 ft 10 kts 69°
2026-05-07 13:26 10.81307 106.65260 44 ft 13 kts 69°
2026-05-07 13:26 10.81343 106.65355 44 ft 16 kts 69°
2026-05-07 13:26 10.81384 106.65465 43 ft 18 kts 69°
2026-05-07 13:27 10.81431 106.65590 43 ft 19 kts 69°
2026-05-07 13:27 10.81476 106.65710 43 ft 16 kts 69°
2026-05-07 13:27 10.81510 106.65773 43 ft 10 kts 44°
2026-05-07 13:27 10.81582 106.65796 43 ft 12 kts
2026-05-07 13:28 10.81679 106.65800 42 ft 16 kts 349°
2026-05-07 13:28 10.81768 106.65837 43 ft 15 kts 55°
2026-05-07 13:28 10.81810 106.65937 45 ft 16 kts 69°
2026-05-07 13:28 10.81853 106.66050 45 ft 18 kts 69°
2026-05-07 13:29 10.81902 106.66180 45 ft 21 kts 69°
2026-05-07 13:29 10.81954 106.66318 44 ft 21 kts 69°
2026-05-07 13:29 10.82011 106.66469 43 ft 25 kts 69°
2026-05-07 13:29 10.82073 106.66635 42 ft 22 kts 69°
2026-05-07 13:30 10.82132 106.66790 40 ft 25 kts 69°
2026-05-07 13:30 10.82184 106.66928 42 ft 18 kts 69°
2026-05-07 13:30 10.82228 106.67002 44 ft 9 kts 25°
2026-05-07 13:30 10.82296 106.66990 43 ft 12 kts 334°
2026-05-07 13:31 10.82353 106.66925 43 ft 12 kts 281°
2026-05-07 13:31 10.82344 106.66884 43 ft 0 kts 250°
2026-05-07 13:33 10.82331 106.66848 41 ft 27 kts 250°
2026-05-07 13:33 10.82165 106.66407 41 ft 104 kts 249°
2026-05-07 13:33 10.81825 106.65508 46 ft 167 kts 249°
2026-05-07 13:33 10.81377 106.64289 466 ft 187 kts 248°
2026-05-07 13:34 10.80967 106.63051 1354 ft 181 kts 253°
2026-05-07 13:34 10.81329 106.60849 2999 ft 153 kts 309°
2026-05-07 13:34 10.82322 106.60386 3174 ft 171 kts
2026-05-07 13:35 10.83520 106.60681 3463 ft 191 kts 20°
2026-05-07 13:35 10.84884 106.61044 3820 ft 213 kts 14°
2026-05-07 13:35 10.86429 106.61300 4293 ft 230 kts
2026-05-07 13:35 10.88074 106.61475 4786 ft 247 kts
2026-05-07 13:36 10.89816 106.61650 5282 ft 262 kts 10°
2026-05-07 13:36 10.91559 106.62246 6013 ft 267 kts 28°
2026-05-07 13:36 10.93156 106.63223 6795 ft 270 kts 33°
2026-05-07 13:36 10.94731 106.64300 7571 ft 275 kts 35°